Date,TemperatureHighF,TemperatureAvgF,TemperatureLowF,DewpointHighF,DewpointAvgF,DewpointLowF,HumidityHigh,HumidityAvg,HumidityLow,PressureMaxIn,PressureMinIn,WindSpeedMaxMPH,WindSpeedAvgMPH,GustSpeedMaxMPH,PrecipitationSumIn
2013-2-1,49.9,45.3,41.4,46.5,43.4,39.8,97,93,84,30.38,30.31,4,1,5,0.04
2013-2-2,44.8,41.7,36.4,42.5,40.0,34.5,96,94,88,30.35,30.23,8,2,8,0.00
2013-2-3,48.2,42.0,34.4,45.2,40.3,33.0,97,94,86,30.29,30.19,6,1,8,0.01
2013-2-4,50.6,45.1,40.1,45.9,42.6,38.3,96,91,80,30.20,29.88,5,1,6,0.01
2013-2-5,50.9,44.8,41.6,46.4,42.5,40.2,95,92,81,29.94,29.82,11,2,16,0.20
2013-2-6,51.3,44.6,41.2,45.3,41.9,40.1,96,90,78,30.03,29.76,7,1,10,0.08
2013-2-7,49.0,41.3,34.0,42.0,37.5,32.4,94,87,66,30.16,29.80,6,1,11,0.06
2013-2-8,46.3,38.6,31.9,39.6,35.4,30.2,96,88,73,30.29,30.16,4,1,4,0.01
2013-2-9,47.5,38.4,34.2,41.7,35.7,32.6,94,90,77,30.28,30.24,3,1,3,0.00
2013-2-10,46.8,44.2,41.9,41.3,39.1,37.9,86,82,77,30.35,30.30,5,1,6,0.00
2013-2-11,46.8,42.5,36.4,42.8,39.8,34.5,95,90,83,30.34,30.30,6,1,7,0.11
2013-2-12,53.5,47.2,43.6,48.3,44.9,42.5,96,92,80,30.39,30.31,10,2,14,0.02
2013-2-13,51.7,46.0,41.4,45.5,42.6,39.2,95,88,75,30.50,30.31,8,2,11,0.03
2013-2-14,50.8,44.6,38.9,47.0,42.4,37.0,95,92,86,30.53,30.48,4,1,6,0.01
2013-2-15,53.6,46.1,38.9,47.8,43.3,37.0,97,90,76,30.52,30.16,6,2,7,0.00
2013-2-16,52.2,43.8,37.8,44.9,39.9,35.2,97,87,71,30.18,30.14,10,3,14,0.04
2013-2-17,49.9,40.6,33.5,41.6,36.3,31.6,95,85,66,30.23,30.08,7,1,9,0.00
2013-2-18,48.6,40.7,35.3,41.3,36.6,33.5,95,86,69,30.08,29.72,9,1,9,0.02
2013-2-19,50.0,42.1,34.9,41.9,37.7,32.8,93,85,66,29.99,29.70,4,1,6,0.03
2013-2-20,47.9,39.7,32.8,41.9,37.0,30.7,95,90,77,30.03,29.96,6,1,9,0.07
2013-2-21,45.2,41.4,38.9,41.9,39.4,37.0,95,93,86,30.08,29.99,10,2,13,0.13
2013-2-22,46.1,41.0,36.9,44.5,39.2,34.1,96,93,84,30.06,29.71,13,3,15,0.93
2013-2-23,50.4,41.7,36.7,39.9,36.1,32.6,94,81,61,30.36,29.92,10,3,12,0.02
2013-2-24,50.0,44.0,39.2,40.2,37.4,34.9,88,78,65,30.37,29.92,9,2,12,0.02
2013-2-25,51.5,42.4,35.3,41.2,37.4,31.6,95,83,57,30.29,29.89,11,3,14,0.27
2013-2-26,52.2,42.0,34.4,40.5,36.1,31.6,93,80,61,30.33,30.17,8,2,10,0.02
2013-2-27,48.1,44.7,39.4,43.9,41.8,36.5,95,89,81,30.28,30.17,4,1,6,0.14
2013-2-28,52.9,48.0,43.4,51.5,46.5,42.0,96,95,93,30.31,30.16,6,1,9,0.91